Weather History for Gainesville, FL

Change the Weather History Date:

Tuesday, October 7, 2014

  Actual Average Record
Temperature  
Mean Temperature 73 °F 74 °F  
Max Temperature 83 °F 83 °F 95 °F (1911)
Min Temperature 62 °F 64 °F 45 °F (2010)
Degree Days  
Heating Degree Days 0 0  
Month to date heating degree days 5 0  
Since 1 July heating degree days 5 0  
Cooling Degree Days 8 9  
Month to date cooling degree days 52 67  
Year to date cooling degree days 2405 2407  
Growing Degree Days 22 (Base 50)    
Moisture  
Dew Point 66 °F    
Average Humidity 78    
Maximum Humidity 97    
Minimum Humidity 58    
Precipitation  
Precipitation T in 0.12 in 3.13 in (1996)
Month to date precipitation 0.23 0.88  
Year to date precipitation 44.57 40.87  
Snow  
Snow 0.00 in 0.00 in 0.00 in ()
Month to date snowfall 0.0 0.0  
Since 1 July snowfall 0.0 0.0  
Since 1 September snowfall 0.0 0.0  
Snow Depth 0.00 in    
Sea Level Pressure  
Sea Level Pressure 30.08 in    
Wind  
Wind Speed 2 mph (SE)    
Max Wind Speed 10 mph    
Max Gust Speed 13 mph    
Visibility 10 miles    
Events      
T = Trace of Precipitation, MM = Missing Value Source: NWS Daily Summary

Daily Weather History Graph

Daily Weather History Graph

Search for Another Location

Airport:

Trip Planner

Search our weather history database for the weather conditions in past years. The results will help you decide how hot, cold, wet, or windy it might be!

Date:

Astronomy

Oct. 07, 2014 Rise Set
Actual Time 7:25 AM EDT 7:07 PM EDT
Civil Twilight 7:01 AM EDT 7:31 PM EDT
Nautical Twilight 6:34 AM EDT 7:58 PM EDT
Astronomical Twilight 6:06 AM EDT 8:26 PM EDT
Moon 6:40 PM EDT (10/7) 6:25 AM EDT (10/7)
Length of Visible Light 12h 29m
Length of Day
11h 41m
Waxing Gibbous, 99% of the Moon is Illuminated
Oct 7
Waxing Gibbous
Oct 8
Full
Oct 15
Last Quarter
Oct 23
New
Oct 30
First Quarter

Hourly Weather History & Observations

Time (EDT) Temp. Heat Index Dew Point Humidity Pressure Visibility Wind Dir Wind Speed Gust Speed Precip Events Conditions
12:53 AM 66.0 °F - 62.1 °F 87% 30.08 in 10.0 mi Calm Calm - N/A   Clear
1:53 AM 64.9 °F - 62.1 °F 90% 30.07 in 10.0 mi Calm Calm - N/A   Clear
2:53 AM 64.0 °F - 62.1 °F 93% 30.07 in 10.0 mi Calm Calm - N/A   Clear
3:53 AM 64.0 °F - 63.0 °F 96% 30.06 in 10.0 mi Calm Calm - N/A   Clear
4:53 AM 62.1 °F - 61.0 °F 96% 30.06 in 10.0 mi Calm Calm - N/A   Clear
5:53 AM 64.0 °F - 63.0 °F 96% 30.06 in 10.0 mi Calm Calm - N/A   Partly Cloudy
6:36 AM 64.9 °F - 64.0 °F 97% 30.07 in 10.0 mi Calm Calm - N/A   Scattered Clouds
6:53 AM 64.0 °F - 63.0 °F 96% 30.07 in 10.0 mi Calm Calm - N/A   Clear
7:53 AM 64.9 °F - 63.0 °F 93% 30.08 in 10.0 mi NE 3.5 mph - 0.00 in   Clear
8:53 AM 70.0 °F - 64.9 °F 84% 30.09 in 10.0 mi Calm Calm - N/A   Clear
9:53 AM 73.0 °F - 66.0 °F 79% 30.12 in 10.0 mi SSE 8.1 mph - N/A   Clear
10:53 AM 75.9 °F - 66.0 °F 71% 30.13 in 10.0 mi SSE 5.8 mph - N/A   Scattered Clouds
11:53 AM 78.1 °F - 66.0 °F 66% 30.13 in 10.0 mi SE 6.9 mph - N/A   Clear
12:53 PM 81.0 °F 83.3 °F 66.9 °F 62% 30.12 in 10.0 mi SE 6.9 mph - N/A   Clear
1:53 PM 81.0 °F 83.3 °F 66.9 °F 62% 30.09 in 10.0 mi East 8.1 mph - N/A   Clear
2:53 PM 82.0 °F 84.5 °F 66.9 °F 60% 30.07 in 10.0 mi ESE 5.8 mph - N/A   Clear
3:53 PM 82.0 °F 84.5 °F 66.9 °F 60% 30.06 in 10.0 mi SSE 6.9 mph - N/A   Clear
4:53 PM 82.0 °F 84.9 °F 68.0 °F 62% 30.06 in 10.0 mi South 5.8 mph - N/A   Clear
5:53 PM 81.0 °F 83.8 °F 68.0 °F 65% 30.06 in 10.0 mi Calm Calm - N/A   Clear
6:53 PM 78.1 °F - 70.0 °F 76% 30.06 in 10.0 mi Calm Calm - N/A   Clear
7:53 PM 73.9 °F - 70.0 °F 87% 30.08 in 10.0 mi Calm Calm - N/A   Clear
8:53 PM 72.0 °F - 70.0 °F 93% 30.09 in 10.0 mi Calm Calm - N/A   Clear
9:53 PM 71.1 °F - 69.1 °F 93% 30.10 in 10.0 mi Calm Calm - N/A   Clear
10:53 PM 69.1 °F - 68.0 °F 96% 30.11 in 10.0 mi Calm Calm - N/A   Clear
11:53 PM 70.0 °F - 68.0 °F 93% 30.12 in 10.0 mi Calm Calm - N/A   Clear